User: anonymous   Login
Location: eljas
(40.1958°N, 6.8661°W)
Time: 17:02:21
(UTC+01:00)
Language:

Okean O Rocket - Orbit

View from above orbital plane
View from above orbital plane
View from above satellite
View from above satellite

Ground track
Ground track

The orbit data is extracted from the following two-line orbital elements,

1 25861U 99039B   15086.92918235  .00000677  00000-0  10080-3 0  9993
2 25861 097.9919 047.7458 0015738 174.8748 251.1288 14.78060363845772
Epoch (UTC): 27 March 2015 22:18:01
Eccentricity: 0.0015738
inclination: 97.9919°
perigee height: 624 km
apogee height: 646 km
right ascension of ascending node: 47.7458°
argument of perigee: 174.8748°
revolutions per day: 14.78060363
mean anomaly at epoch: 251.1288°
orbit number at epoch: 84577

The dashed part of the orbit path shows where the satellite is in the earth's shadow,  

DLR